This demonstration page uses our WeatherBlox Daily Observations layout. Learn more.

36.17497, -115.13722

Hourly Observations for June 19, 2016

Temp ( °F °C ) Dew Point ( °F °C ) Humidity (%) Winds ( mph kmh ) Pressure ( in mb ) Visibility ( mi km ) Precip ( " mm )
12:53 am 00:53 Clear 88 31.1 21 -6.1 8 8 SSE 6 9 29.96 1015 10 16.0934 0 0
1:53 am 01:53 Clear 88 31.1 23 -5 9 9 S 6 9 29.94 1014 10 16.0934 0 0
2:53 am 02:53 Clear 88 31.1 24 -4.4 10 10 SW 5 7 29.94 1014 10 16.0934 0 0
3:53 am 03:53 Clear 84 28.9 25 -3.9 11 11 NW 5 7 29.94 1014 10 16.0934 0 0
4:53 am 04:53 Clear 81 27.2 26 -3.3 13 13 Calm 29.95 1014 10 16.0934 0 0
5:53 am 05:53 Sunny 78 25.6 27 -2.8 15 15 N 5 7 29.97 1015 10 16.0934 0 0
6:53 am 06:53 Sunny 82 27.8 24 -4.4 12 12 N 6 9 29.98 1015 10 16.0934 0 0
7:53 am 07:53 Sunny 86 30 24 -4.4 10 10 N 7 11 30 1016 10 16.0934 0 0
8:53 am 08:53 Sunny 90 32.2 24 -4.4 9 9 N 5 7 30 1016 10 16.0934 0 0
9:53 am 09:53 Sunny 92 33.3 25 -3.9 9 9 Calm 29.99 1016 10 16.0934 0 0
10:53 am 10:53 Sunny 97 36.1 24 -4.4 7 7 NE 3 6 29.98 1015 10 16.0934 0 0
11:53 am 11:53 Sunny 100 37.8 22 -5.6 6 6 SE 7 11 29.96 1015 10 16.0934 0 0
12:53 pm 12:53 Sunny 104 40 22 -5.6 5 5 undefined N/A 29.94 1014 10 16.0934 0 0
1:53 pm 13:53 Sunny 105 40.6 25 -3.9 6 6 E 3 6 29.91 1013 10 16.0934 0 0
2:53 pm 14:53 Sunny 107 41.7 29 -1.7 6 6 E 6 9 29.88 1012 10 16.0934 0 0
3:53 pm 15:53 Sunny 108 42.2 32 0 7 7 SSE 12 19 29.85 1011 10 16.0934 0 0
4:53 pm 16:53 Sunny 108 42.2 34 1.1 8 8 E 7 11 29.84 1011 10 16.0934 0 0
5:53 pm 17:53 Sunny 107 41.7 33 0.6 8 8 ESE 8 13 29.83 1010 10 16.0934 0 0
6:53 pm 18:53 Sunny 107 41.7 35 1.7 8 8 SW 9 15 29.84 1010 10 16.0934 0 0
7:53 pm 19:53 Sunny 105 40.6 35 1.7 9 9 WSW 8 13 29.84 1011 10 16.0934 0 0
8:53 pm 20:53 Clear 102 38.9 35 1.7 10 10 WNW 7 11 29.85 1011 10 16.0934 0 0
9:53 pm 21:53 Clear 100 37.8 36 2.2 11 11 NW 9 15 29.87 1012 10 16.0934 0 0
10:53 pm 22:53 Clear 98 36.7 37 2.8 12 12 SW 6 9 29.88 1012 10 16.0934 0 0
11:53 pm 23:53 Clear 94 34.4 38 3.3 14 14 Calm 29.88 1012 10 16.0934 0 0

Powered by AerisWeather